星链-35107 (STARLINK-35107)

导读

STARLINK-35107是美国太空探索技术公司SpaceX于2025年9月3日发射的星链卫星,属于Starlink卫星互联网项目。作为SpaceX打造的低轨卫星星座一员,它运行在约550公里近地轨道,配备相控阵天线与激光星间链路,旨在为全球偏远地区提供低延迟高速宽带服务,助力星链实现全球覆盖的网络建设目标。

基本信息
目录编号:
65464
目录名称:
STARLINK-35107
国际标识:
2025-195G
轨道中心:
EARTH
卫星名称:
星链-35107
卫星全名:
星链-35107 (STARLINK-35107)
卫星状态:
在轨 (已飞行283 天)
发射日期:
2025-09-03 UTC
国别 :
美国 (US)
星等 :
--
轨道信息
数据来源 国际轨道数据
星历时间: 2026-06-13T15:08:43+0800
7小时前
查看轨道信息
半长轴: 6848.891km
偏心率: 0.0001145
轨道倾角: 53.157°
近地点辐角 90.769°
升交点赤经 173.248°
平近点角 269.344°
近地点: 469.969km
远地点: 471.539km
周期: 94.013分钟
每日圈数: 15.316956
详细信息
固有亮度:
5
最大亮度:
2.5
卫星平台:
Starlink V1.0
覆盖范围:
全球
运营商:
太空探索技术公司
运营商所在国:
美国
制造商(研发单位):
太空探索技术公司
制造商所在国:
美国
使用方式:
暂无
卫星简介
Starlink 计划是 SpaceX 推出的全球卫星互联网项目,通过发射低轨道卫星,为全球尤其是偏远地区提供高速、低延迟的互联网服务。自 2019 年起,Starlink 已部署数千颗卫星,旨在缩小全球数字鸿沟,推动互联网普及。该项目还为军事、航空等行业提供通信支持,带来广泛经济效益。
2D轨道图
3D轨道图
轨道高度分析图
轨道倾角分析图
轨道综合分析图
查看轨道综合分析图